CW3175 Weather Reports


time (UTC)temp
F
wind
direction
speed
knots
gust
knots
rain 1hr
in
rain 24hr
in
rain mn
in
humidity
%
barometer
mb
20140918093650 54 110 0.0 0.0 0.00 0.00 0.00 89 1015.8
20140918092133 54 110 0.0 0.0 0.00 0.00 0.00 89 1015.7
20140918090628 54 110 0.0 0.0 0.00 0.00 0.00 89 1015.6
20140918085129 55 110 0.0 0.0 0.00 0.00 0.00 88 1015.6
20140918083629 55 110 0.0 0.0 0.00 0.00 0.00 89 1015.6
20140918082121 55 110 0.0 0.0 0.00 0.00 0.00 88 1015.6
20140918080611 55 110 0.0 0.0 0.00 0.00 0.00 87 1015.6
20140918075059 55 110 0.0 0.0 0.00 0.00 0.00 87 1015.5
20140918073549 56 110 0.0 0.0 0.00 0.00 0.00 87 1015.5
20140918072019 56 110 0.0 0.0 0.00 0.00 0.00 87 1015.5
20140918070447 56 110 0.0 0.0 0.00 0.00 0.00 88 1015.5
20140918064946 56 110 0.0 0.0 0.00 0.00 0.00 87 1015.4
20140918063447 57 110 0.0 0.0 0.00 0.00 0.00 87 1015.3
20140918061943 57 110 0.0 0.0 0.00 0.00 0.00 87 1015.1
20140918060433 57 110 0.0 0.0 0.00 0.00 0.00 86 1015.0
20140918054933 58 110 0.0 0.0 0.00 0.00 0.00 85 1015.0
20140918053408 58 110 0.0 0.0 0.00 0.00 0.00 84 1014.9
20140918051839 58 110 0.0 0.0 0.00 0.00 0.00 83 1014.9
20140918050309 58 110 0.0 0.0 0.00 0.00 0.00 82 1015.0
20140918044803 58 110 0.0 0.0 0.00 0.00 0.00 81 1014.9
20140918043300 59 110 0.0 0.0 0.00 0.00 0.00 79 1014.9
20140918041735 60 110 0.0 0.0 0.00 0.00 0.00 78 1014.9
20140918040204 60 110 0.0 0.0 0.00 0.00 0.00 76 1014.8
20140918034635 61 110 0.0 0.0 0.00 0.00 0.00 74 1014.8
20140918033109 62 110 0.0 0.0 0.00 0.00 0.00 73 1014.7
20140918031557 62 110 0.0 0.0 0.00 0.00 0.00 73 1014.8
20140918030054 62 110 0.0 0.0 0.00 0.00 0.00 72 1014.5
20140918024542 62 110 0.0 0.0 0.00 0.00 0.00 71 1014.4
20140918023039 62 110 0.0 0.0 0.00 0.00 0.00 71 1014.4
20140918021538 62 110 0.0 0.0 0.00 0.00 0.00 70 1014.5
20140918020026 62 110 0.0 3.5 0.00 0.00 0.00 69 1014.2
20140918014523 62 110 0.0 1.7 0.00 0.00 0.00 68 1014.1
20140918013002 62 110 0.0 0.9 0.00 0.00 0.00 67 1014.0
20140918011436 62 110 0.0 0.9 0.00 0.00 0.00 66 1014.0
20140918005934 62 110 0.0 2.6 0.00 0.00 0.00 65 1013.7
20140918004426 63 110 0.0 2.6 0.00 0.00 0.00 65 1013.4
20140918002910 63 115 0.0 2.6 0.00 0.00 0.00 63 1013.4
20140918001404 63 115 0.0 1.7 0.00 0.00 0.00 62 1013.6
20140917235852 63 115 0.0 4.3 0.00 0.00 0.00 61 1013.6
20140917234342 63 117 0.0 4.3 0.00 0.00 0.00 60 1013.4
20140917232836 64 90 0.9 5.2 0.00 0.00 0.00 58 1013.3
20140917231330 64 111 0.9 5.2 0.00 0.00 0.00 57 1013.4
20140917225827 65 109 0.9 7.8 0.00 0.00 0.00 55 1013.3
20140917224325 65 84 0.9 6.1 0.00 0.00 0.00 54 1013.3
20140917222826 65 113 0.9 6.1 0.00 0.00 0.00 53 1013.2
20140917221322 66 67 1.7 6.1 0.00 0.00 0.00 49 1013.1
20140917215808 66 26 1.7 8.7 0.00 0.00 0.00 49 1013.4
20140917214308 67 88 1.7 6.1 0.00 0.00 0.00 49 1013.4
20140917212759 66 87 2.6 7.8 0.00 0.00 0.00 49 1013.6
20140917211254 67 49 1.7 8.7 0.00 0.00 0.00 48 1013.4
20140917205751 67 78 2.6 9.6 0.00 0.00 0.00 48 1013.3
20140917204248 68 58 1.7 7.8 0.00 0.00 0.00 47 1013.4
20140917202750 68 133 0.9 6.1 0.00 0.00 0.00 46 1013.3
20140917201245 68 46 1.7 7.8 0.00 0.00 0.00 46 1013.4
20140917195731 67 82 1.7 7.8 0.00 0.00 0.00 47 1013.4
20140917194231 68 71 0.9 5.2 0.00 0.00 0.00 47 1013.6
20140917192731 68 132 1.7 8.7 0.00 0.00 0.00 46 1013.8
20140917191230 68 62 1.7 9.6 0.00 0.00 0.00 46 1013.7
20140917185731 69 112 0.0 5.2 0.00 0.00 0.00 44 1013.9
20140917184231 68 119 0.9 4.3 0.00 0.00 0.00 45 1014.0
20140917182727 69 185 1.7 7.8 0.00 0.00 0.00 40 1014.1
20140917181223 71 211 0.9 8.7 0.00 0.00 0.00 36 1014.3
20140917175707 70 292 0.0 4.3 0.00 0.00 0.00 38 1014.4
20140917174145 69 30 0.9 7.8 0.00 0.00 0.00 40 1014.5
20140917172645 69 296 0.0 4.3 0.00 0.00 0.00 38 1014.5
20140917171128 69 295 0.9 5.2 0.00 0.00 0.00 39 1014.5
20140917165624 68 298 0.0 8.7 0.00 0.00 0.00 40 1014.6
20140917164119 68 346 0.0 3.5 0.00 0.00 0.00 40 1014.8
20140917162616 68 221 0.9 6.1 0.00 0.00 0.00 40 1014.9
20140917161114 67 242 0.9 5.2 0.00 0.00 0.00 41 1015.0
20140917155610 66 244 0.0 4.3 0.00 0.00 0.00 42 1015.0
20140917154038 66 204 0.9 5.2 0.00 0.00 0.00 43 1015.0
20140917152528 66 271 0.0 3.5 0.00 0.00 0.00 45 1015.0
20140917151022 66 232 0.0 2.6 0.00 0.00 0.00 47 1015.0
20140917145521 65 275 0.0 2.6 0.00 0.00 0.00 48 1015.0
20140917143958 64 272 0.0 1.7 0.00 0.00 0.00 52 1015.0
20140917142452 63 221 0.0 0.9 0.00 0.00 0.00 55 1015.1
20140917140953 61 222 0.0 3.5 0.00 0.00 0.00 57 1015.2
20140917135436 60 214 0.0 0.9 0.00 0.00 0.00 60 1015.4
20140917133907 58 212 0.0 0.9 0.00 0.00 0.00 65 1015.6
20140917132400 57 207 0.0 0.9 0.00 0.00 0.00 67 1015.7
20140917130856 56 202 0.0 0.0 0.00 0.00 0.00 71 1015.8
20140917125354 54 203 0.0 0.0 0.00 0.00 0.00 77 1016.0
20140917123844 53 202 0.0 0.0 0.00 0.00 0.00 81 1016.2
20140917122335 52 202 0.0 0.0 0.00 0.00 0.00 82 1016.2
20140917120748 51 202 0.0 0.0 0.00 0.00 0.00 84 1016.0
20140917115244 51 202 0.0 0.0 0.00 0.00 0.00 85 1016.0
20140917113744 50 203 0.0 1.7 0.00 0.00 0.00 87 1015.9
20140917112230 50 136 0.0 0.0 0.00 0.00 0.00 88 1015.8
20140917110730 50 136 0.0 0.0 0.00 0.00 0.00 87 1015.8
20140917105222 51 136 0.0 0.0 0.00 0.00 0.00 87 1015.7
20140917103652 51 136 0.0 0.0 0.00 0.00 0.00 87 1015.7
20140917102122 51 136 0.0 0.0 0.00 0.00 0.00 87 1015.7
20140917100550 51 136 0.0 0.0 0.00 0.00 0.00 88 1015.7
20140917095020 51 136 0.0 0.0 0.00 0.00 0.00 87 1015.7